This demonstration page uses our WeatherBlox Daily Observations layout. Learn more.

Hourly Observations for May 7, 2020

Temp ( °F °C ) Dew Point ( °F °C ) Humidity (%) Winds ( mph kmh ) Pressure ( in mb ) Visibility ( mi km ) Precip ( " mm )
12:15 am 00:15 Cloudy 43 6 39 4 87 87 N 14 22 29.9 1013 10 16.0934 0 0
12:35 am 00:35 Cloudy 45 7 41 5 87 87 N 9 15 29.91 1013 10 16.0934 0 0
12:55 am 00:55 Cloudy 45 7 41 5 87 87 N 8 13 29.91 1013 10 16.0934 0 0
1:15 am 01:15 Cloudy 45 7 41 5 87 87 N 7 11 29.92 1013 10 16.0934 0 0
1:35 am 01:35 Cloudy 43 6 41 5 93 93 NNW 9 15 29.92 1013 10 16.0934 0 0
1:55 am 01:55 Cloudy 43 6 41 5 93 93 NNW 10 17 29.91 1013 10 16.0934 0 0
2:15 am 02:15 Cloudy 43 6 41 5 93 93 NNW 13 20 29.9 1013 10 16.0934 0 0
2:35 am 02:35 Cloudy 43 6 41 5 93 93 NNW 13 20 29.9 1013 10 16.0934 0 0
2:55 am 02:55 Cloudy 43 6 39 4 87 87 NW 13 20 29.9 1013 10 16.0934 0 0
3:15 am 03:15 Cloudy 43 6 39 4 87 87 NNW 8 13 29.9 1013 10 16.0934 0 0
3:35 am 03:35 Cloudy 43 6 39 4 87 87 NNE 3 6 29.9 1013 10 16.0934 0 0
3:55 am 03:55 Partly Cloudy 43 6 37 3 81 81 N 3 6 29.9 1013 10 16.0934 0 0
4:15 am 04:15 Mostly Cloudy 41 5 37 3 87 87 NW 6 9 29.91 1013 10 16.0934 0 0
4:35 am 04:35 Partly Cloudy 41 5 37 3 87 87 Calm 29.91 1013 10 16.0934 0 0
4:55 am 04:55 Clear 41 5 37 3 87 87 Calm 29.91 1013 10 16.0934 0 0
5:15 am 05:15 Clear 41 5 37 3 87 87 NNW 6 9 29.91 1013 10 16.0934 0 0
5:35 am 05:35 Clear 37 3 36 2 93 93 NW 5 7 29.92 1013 10 16.0934 0 0
5:55 am 05:55 Clear 37 3 36 2 93 93 WNW 6 9 29.93 1013 10 16.0934 0 0
6:15 am 06:15 Sunny 37 3 36 2 93 93 WNW 6 9 29.93 1013 10 16.0934 0 0
6:35 am 06:35 Sunny 36 2 36 2 100 100 W 5 7 29.94 1014 10 16.0934 0 0
6:55 am 06:55 Sunny 39 4 37 3 93 93 WNW 6 9 29.95 1014 10 16.0934 0 0
7:15 am 07:15 Sunny 41 5 37 3 87 87 WNW 6 9 29.94 1014 10 16.0934 0 0
7:35 am 07:35 Sunny 43 6 36 2 76 76 WNW 5 7 29.95 1014 10 16.0934 0 0
7:55 am 07:55 Sunny 45 7 36 2 71 71 NNW 6 9 29.96 1015 10 16.0934 0 0
8:15 am 08:15 Sunny 46 8 36 2 66 66 NW 8 13 29.96 1015 10 16.0934 0 0
8:35 am 08:35 Sunny 46 8 36 2 66 66 NW 12 19 29.96 1015 10 16.0934 0 0
8:55 am 08:55 Sunny 48 9 34 1 58 58 N 7 11 29.97 1015 10 16.0934 0 0
9:15 am 09:15 Sunny 50 10 34 1 54 54 NNW 8 13 29.96 1014 10 16.0934 0 0
9:35 am 09:35 Sunny 50 10 34 1 54 54 NNW 8 13 29.96 1014 10 16.0934 0 0
9:55 am 09:55 Sunny 52 11 32 0 47 47 N 8 13 29.95 1014 10 16.0934 0 0
10:15 am 10:15 Sunny 54 12 34 1 47 47 NNW 14 22 29.95 1014 10 16.0934 0 0
10:35 am 10:35 Sunny 54 12 34 1 47 47 NNW 12 19 29.95 1014 10 16.0934 0 0
10:55 am 10:55 Sunny 55 13 34 1 44 44 NW 12 19 29.95 1014 10 16.0934 0 0
11:15 am 11:15 Sunny 55 13 32 0 41 41 N 9 15 29.95 1014 10 16.0934 0 0
11:35 am 11:35 Sunny 57 14 34 1 41 41 NNW 10 17 29.95 1014 10 16.0934 0 0
11:55 am 11:55 Sunny 57 14 32 0 39 39 NNW 8 13 29.95 1014 10 16.0934 0 0
12:15 pm 12:15 Sunny 59 15 32 0 36 36 WNW 7 11 29.94 1014 10 16.0934 0 0
12:35 pm 12:35 Sunny 59 15 32 0 36 36 NW 12 19 29.93 1013 10 16.0934 0 0
12:55 pm 12:55 Sunny 59 15 32 0 36 36 NW 13 20 29.93 1013 10 16.0934 0 0
1:15 pm 13:15 Sunny 61 16 32 0 34 34 NNW 12 19 29.92 1013 10 16.0934 0 0
1:35 pm 13:35 Sunny 61 16 32 0 34 34 W 15 24 29.91 1013 10 16.0934 0 0
1:55 pm 13:55 Sunny 61 16 32 0 34 34 NNW 16 26 29.91 1013 10 16.0934 0 0
2:15 pm 14:15 Sunny 63 17 34 1 34 34 WNW 14 22 29.9 1012 10 16.0934 0 0
2:35 pm 14:35 Sunny 63 17 32 0 32 32 NNW 16 26 29.89 1012 10 16.0934 0 0
2:55 pm 14:55 Sunny 64 18 32 0 30 30 NW 14 22 29.88 1012 10 16.0934 0 0
3:15 pm 15:15 Sunny 64 18 32 0 30 30 W 15 24 29.87 1012 10 16.0934 0 0
3:35 pm 15:35 Sunny 64 18 32 0 30 30 WNW 14 22 29.86 1011 10 16.0934 0 0
3:55 pm 15:55 Sunny 64 18 32 0 30 30 W 10 17 29.85 1011 10 16.0934 0 0
4:15 pm 16:15 Sunny 64 18 32 0 30 30 WNW 7 11 29.84 1011 10 16.0934 0 0
4:35 pm 16:35 Sunny 64 18 32 0 30 30 W 14 22 29.84 1011 10 16.0934 0 0
4:55 pm 16:55 Partly Cloudy 64 18 32 0 30 30 W 9 15 29.84 1011 10 16.0934 0 0
5:15 pm 17:15 Partly Cloudy 66 19 34 1 30 30 W 10 17 29.84 1011 10 16.0934 0 0
5:35 pm 17:35 Partly Cloudy 66 19 32 0 28 28 NW 16 26 29.84 1011 10 16.0934 0 0
5:55 pm 17:55 Mostly Cloudy 64 18 32 0 30 30 W 9 15 29.84 1011 10 16.0934 0 0
6:15 pm 18:15 Cloudy 66 19 34 1 30 30 W 9 15 29.84 1011 10 16.0934 0 0
6:35 pm 18:35 Partly Cloudy 64 18 32 0 30 30 WNW 9 15 29.84 1011 10 16.0934 0 0
6:55 pm 18:55 Sunny 64 18 32 0 30 30 W 12 19 29.84 1011 10 16.0934 0 0
7:15 pm 19:15 Sunny 64 18 32 0 30 30 W 8 13 29.84 1011 10 16.0934 0 0
7:35 pm 19:35 Sunny 63 17 32 0 32 32 W 9 15 29.85 1011 10 16.0934 0 0
7:55 pm 19:55 Sunny 63 17 32 0 32 32 W 9 15 29.85 1011 10 16.0934 0 0
8:15 pm 20:15 Clear 61 16 32 0 34 34 W 8 13 29.86 1011 10 16.0934 0 0
8:35 pm 20:35 Clear 61 16 32 0 34 34 WSW 6 9 29.87 1011 10 16.0934 0 0
8:55 pm 20:55 Clear 61 16 32 0 34 34 WSW 5 7 29.87 1011 10 16.0934 0 0
9:15 pm 21:15 Clear 59 15 32 0 36 36 SW 5 7 29.87 1011 10 16.0934 0 0
9:35 pm 21:35 Clear 57 14 32 0 39 39 SW 6 9 29.88 1012 10 16.0934 0 0
9:55 pm 21:55 Clear 55 13 32 0 41 41 SW 5 7 29.88 1012 10 16.0934 0 0
10:15 pm 22:15 Clear 54 12 32 0 44 44 SW 6 9 29.88 1012 10 16.0934 0 0
10:35 pm 22:35 Clear 55 13 32 0 41 41 SW 6 9 29.89 1012 10 16.0934 0 0
10:55 pm 22:55 Clear 54 12 32 0 44 44 WSW 5 7 29.89 1012 10 16.0934 0 0
11:15 pm 23:15 Clear 54 12 32 0 44 44 SW 6 9 29.88 1012 10 16.0934 0 0
11:35 pm 23:35 Clear 54 12 32 0 44 44 SW 7 11 29.88 1012 10 16.0934 0 0
11:55 pm 23:55 Clear 54 12 32 0 44 44 SW 7 11 29.88 1012 10 16.0934 0 0

Powered by AerisWeather